Weather History for Fitzgerald Muni, Fitzgerald,, GA

Change the Weather History Date:

Friday, August 15, 2014

  Actual Average Record
Temperature  
Mean Temperature 82 °F -  
Max Temperature 94 °F 90 °F 94 °F (2014)
Min Temperature 69 °F 70 °F 69 °F (2014)
Cooling Degree Days 16    
Growing Degree Days 32 (Base 50)    
Moisture  
Dew Point 65 °F    
Average Humidity 61    
Maximum Humidity 92    
Minimum Humidity 29    
Precipitation  
Precipitation 0.00 in - - ()
Sea Level Pressure  
Sea Level Pressure 30.00 in    
Wind  
Wind Speed 2 mph (NW)    
Max Wind Speed 9 mph    
Max Gust Speed 10 mph    
Visibility 10 miles    
Events      
Averages and records for this station are not official NWS values.
T = Trace of Precipitation, MM = Missing Value Source: NWS Daily Summary

Daily Weather History Graph

Daily Weather History Graph

Search for Another Location

Airport:

Trip Planner

Search our weather history database for the weather conditions in past years. The results will help you decide how hot, cold, wet, or windy it might be!

Date:

Astronomy

Aug. 15, 2014 Rise Set
Actual Time 6:58 AM EDT 8:16 PM EDT
Civil Twilight 6:32 AM EDT 8:42 PM EDT
Nautical Twilight 6:01 AM EDT 9:12 PM EDT
Astronomical Twilight 5:30 AM EDT 9:44 PM EDT
Moon 11:43 PM EDT (8/15) 12:16 PM EDT (8/15)
Length of Visible Light 14h 09m
Length of Day
13h 18m
Waning Gibbous, 69% of the Moon is Illuminated
Aug 15
Waning Gibbous
Aug 17
Last Quarter
Aug 25
New
Sep 2
First Quarter
Sep 8
Full

Hourly Weather History & Observations

Time (EDT) Temp. Heat Index Dew Point Humidity Pressure Visibility Wind Dir Wind Speed Gust Speed Precip Events Conditions
12:10 AM 77.4 °F - 69.8 °F 77% 30.00 in 10.0 mi NW 3.5 mph - N/A   Scattered Clouds
12:35 AM 74.1 °F - 70.7 °F 89% 30.00 in 10.0 mi Calm Calm - N/A   Clear
12:55 AM 74.7 °F - 69.6 °F 84% 30.00 in 10.0 mi Calm Calm - N/A   Clear
1:15 AM 73.4 °F - 69.8 °F 88% 30.00 in 10.0 mi Calm Calm - N/A   Clear
1:35 AM 73.6 °F - 69.1 °F 86% 30.00 in 10.0 mi Calm Calm - N/A   Clear
1:55 AM 72.0 °F - 69.3 °F 91% 30.00 in 10.0 mi Calm Calm - N/A   Clear
2:15 AM 71.1 °F - 68.4 °F 91% 30.00 in 10.0 mi Calm Calm - N/A   Clear
2:35 AM 71.8 °F - 68.7 °F 90% 29.99 in 10.0 mi Calm Calm - N/A   Clear
2:55 AM 70.7 °F - 68.0 °F 91% 29.99 in 7.0 mi Calm Calm - N/A   Clear
3:15 AM 72.0 °F - 68.9 °F 90% 29.99 in 10.0 mi Calm Calm - N/A   Clear
3:35 AM 70.7 °F - 68.0 °F 91% 29.99 in 7.0 mi Calm Calm - N/A   Clear
3:55 AM 70.9 °F - 68.2 °F 91% 29.99 in 10.0 mi Calm Calm - N/A   Mostly Cloudy
4:15 AM 70.3 °F - 67.6 °F 91% 29.99 in 7.0 mi Calm Calm - N/A   Scattered Clouds
4:35 AM 70.7 °F - 68.2 °F 92% 29.98 in 7.0 mi Calm Calm - N/A   Clear
4:55 AM 69.3 °F - 66.6 °F 91% 29.98 in 7.0 mi Calm Calm - N/A   Clear
5:35 AM 70.7 °F - 68.0 °F 91% 29.99 in 7.0 mi Calm Calm - N/A   Clear
5:55 AM 70.0 °F - 67.5 °F 92% 30.00 in 5.0 mi Calm Calm - N/A   Mostly Cloudy
6:35 AM 70.7 °F - 68.0 °F 91% 30.01 in 10.0 mi NNW 4.6 mph - N/A   Mostly Cloudy
7:15 AM 71.6 °F - 68.2 °F 89% 30.02 in 10.0 mi Calm Calm - N/A   Scattered Clouds
7:35 AM 71.1 °F - 68.4 °F 91% 30.02 in 7.0 mi Calm Calm - N/A   Scattered Clouds
7:55 AM 72.9 °F - 69.8 °F 90% 30.03 in 10.0 mi Calm Calm - N/A   Clear
8:15 AM 74.8 °F - 69.3 °F 83% 30.03 in 10.0 mi Calm Calm - N/A   Clear
8:35 AM 77.2 °F - 68.2 °F 74% 30.04 in 10.0 mi Calm Calm - N/A   Clear
8:55 AM 79.5 °F - 67.8 °F 67% 30.05 in 10.0 mi Calm Calm - N/A   Scattered Clouds
9:15 AM 80.8 °F 83.5 °F 68.2 °F 65% 30.05 in 10.0 mi Calm Calm - N/A   Mostly Cloudy
9:35 AM 82.6 °F 84.1 °F 64.2 °F 54% 30.05 in 10.0 mi Calm Calm - N/A   Scattered Clouds
9:55 AM 84.0 °F 85.4 °F 64.2 °F 51% 30.05 in 10.0 mi Calm Calm - N/A   Scattered Clouds
10:15 AM 85.5 °F 87.1 °F 64.8 °F 50% 30.05 in 10.0 mi North 3.5 mph - N/A   Mostly Cloudy
10:35 AM 86.9 °F 87.5 °F 62.8 °F 44% 30.06 in 10.0 mi NNW 5.8 mph - N/A   Scattered Clouds
10:55 AM 87.8 °F 87.6 °F 60.4 °F 40% 30.06 in 10.0 mi NNE 3.5 mph - N/A   Scattered Clouds
11:15 AM 89.8 °F 88.6 °F 58.1 °F 34% 30.06 in 10.0 mi North 6.9 mph - N/A   Clear
11:35 AM 89.6 °F 89.5 °F 61.2 °F 38% 30.06 in 10.0 mi NNE 4.6 mph - N/A   Clear
11:55 AM 89.6 °F 89.2 °F 60.4 °F 37% 30.05 in 10.0 mi ENE 3.5 mph - N/A   Clear
12:15 PM 89.8 °F 89.7 °F 61.2 °F 38% 30.05 in 10.0 mi ENE 3.5 mph - N/A   Scattered Clouds
12:35 PM 89.6 °F 89.5 °F 61.0 °F 38% 30.04 in 10.0 mi WNW 3.5 mph - N/A   Mostly Cloudy
1:15 PM 89.6 °F 89.8 °F 61.3 °F 39% 30.02 in 10.0 mi East 3.5 mph - N/A   Mostly Cloudy
1:35 PM 90.9 °F 90.9 °F 61.3 °F 37% 30.01 in 10.0 mi Calm Calm - N/A   Mostly Cloudy
1:55 PM 93.4 °F 93.2 °F 60.4 °F 33% 30.00 in 10.0 mi Calm Calm - N/A   Scattered Clouds
2:15 PM 92.7 °F 93.2 °F 61.7 °F 36% 30.00 in 10.0 mi SW 3.5 mph - N/A   Mostly Cloudy
2:35 PM 91.2 °F 91.1 °F 60.6 °F 36% 29.99 in 10.0 mi Calm Calm - N/A   Mostly Cloudy
2:55 PM 91.9 °F 91.5 °F 60.1 °F 34% 29.99 in 10.0 mi South 3.5 mph - N/A   Mostly Cloudy
3:15 PM 93.4 °F 93.2 °F 60.1 °F 33% 29.97 in 10.0 mi West 6.9 mph - N/A   Mostly Cloudy
3:35 PM 94.8 °F 94.5 °F 59.4 °F 31% 29.97 in 10.0 mi WNW 5.8 mph 10.4 mph N/A   Scattered Clouds
3:55 PM 94.1 °F 93.9 °F 59.7 °F 32% 29.96 in 10.0 mi WNW 9.2 mph - N/A   Scattered Clouds
4:15 PM 92.7 °F 92.5 °F 60.1 °F 34% 29.97 in 10.0 mi West 8.1 mph - N/A   Scattered Clouds
4:35 PM 92.5 °F 92.2 °F 60.4 °F 34% 29.97 in 10.0 mi West 3.5 mph - N/A   Scattered Clouds
4:55 PM 92.3 °F 92.0 °F 60.4 °F 34% 29.98 in 10.0 mi West 6.9 mph - N/A   Mostly Cloudy
5:15 PM 94.8 °F 93.8 °F 58.1 °F 29% 29.98 in 10.0 mi West 6.9 mph - N/A   Scattered Clouds
5:35 PM 94.5 °F 93.3 °F 57.4 °F 29% 29.97 in 10.0 mi WNW 6.9 mph - N/A   Scattered Clouds
5:55 PM 93.6 °F 92.1 °F 57.2 °F 29% 29.97 in 10.0 mi WNW 8.1 mph - N/A   Scattered Clouds
6:15 PM 93.2 °F 92.2 °F 58.1 °F 31% 29.97 in 10.0 mi NW 6.9 mph - N/A   Clear
6:35 PM 92.7 °F 91.5 °F 58.1 °F 31% 29.96 in 10.0 mi WNW 5.8 mph - N/A   Clear
6:55 PM 91.8 °F 90.6 °F 57.9 °F 32% 29.96 in 10.0 mi NW 6.9 mph - N/A   Clear
7:10 PM 91.4 °F 90.1 °F 57.7 °F 32% 29.96 in 10.0 mi NW 5.8 mph - N/A   Clear
7:35 PM 89.8 °F 88.9 °F 59.0 °F 35% 29.97 in 10.0 mi WNW 5.8 mph - N/A   Clear
7:55 PM 88.5 °F 88.1 °F 60.1 °F 38% 29.97 in 10.0 mi Calm Calm - N/A   Clear
8:15 PM 86.7 °F 86.8 °F 61.3 °F 42% 29.98 in 10.0 mi Calm Calm - N/A   Clear
8:35 PM 82.8 °F 84.3 °F 64.8 °F 54% 29.98 in 10.0 mi Calm Calm - N/A   Clear
8:55 PM 79.0 °F - 66.4 °F 65% 29.98 in 10.0 mi Calm Calm - N/A   Clear
9:15 PM 80.4 °F 82.8 °F 67.1 °F 64% 29.99 in 10.0 mi Calm Calm - N/A   Clear
9:35 PM 77.9 °F - 67.8 °F 71% 29.99 in 10.0 mi Calm Calm - N/A   Scattered Clouds
9:55 PM 79.2 °F - 68.5 °F 70% 29.99 in 10.0 mi NW 3.5 mph - N/A   Mostly Cloudy
10:15 PM 78.8 °F - 67.8 °F 69% 29.99 in 10.0 mi Calm Calm - N/A   Scattered Clouds
10:35 PM 74.3 °F - 70.3 °F 87% 30.00 in 10.0 mi Calm Calm - N/A   Clear
10:55 PM 75.0 °F - 69.6 °F 83% 29.99 in 10.0 mi Calm Calm - N/A   Scattered Clouds
11:15 PM 75.6 °F - 68.4 °F 78% 29.99 in 10.0 mi Calm Calm - N/A   Clear
11:35 PM 73.2 °F - 69.6 °F 88% 30.00 in 10.0 mi Calm Calm - N/A   Scattered Clouds
11:55 PM 74.5 °F - 69.8 °F 85% 30.01 in 10.0 mi Calm Calm - N/A   Overcast